Location: Eekwerd
(53.3234°N, 6.7984°E)
Time: 20:25:33
(UTC+00:00)

Cosmos 2221 - Pass Details

Date: 15 May 2026
Orbit: 569 x 587 km, 82.5° (Epoch: 8 June)

Event Time Altitude Azimuth Distance (km) Brightness Sun altitude
Exits shadow 22:03:19 23° 126° (SE) 1,262 3.7 -15.3°
Maximum altitude 22:04:50 29° 90° (E) 1,080 3.6 -15.4°
Drops below altitude 10° 22:08:28 10° 30° (NNE) 1,909 5.6 -15.6°
Sets 22:10:53 0° 19° (NNE) 2,818 6.8 -15.7°
